Погода в Маджалисе

Россия / Республика Дагестан     42°07′17″N   47°49′52″E
темп.,
°C
ветер,
м/с
пор.,
м/с
влажн.,
%
обл.,
%
осадки,
мм/ч
давл.,
гПа
погр.,
м
9 мая, вс
вс900:00+10юз43526 0.0 101328
03:00+10юз434018 0.0 101129
06:00+13юз33515 0.0 100936
09:00+20св22411 0.0 1007656
12:00+20св3348100 0.0 1005935
15:00+19св3356100 0.0 1005906
18:00+13св2285100 0.1 1007160
21:00+10вюв2298100 0.6 1011226
10 мая, пн
пн1000:00+10в3499100 1.6 1011197
03:00+6всв3399100 4.6 1012233
06:00+3в3499100 14.1 1017291
09:000св22100100 22.6 1021152
12:00+1в33100100 7.1 1022176
15:00+2св229598 7.4 1021379
18:00+2св119592 0.2 1021235
21:00+2юв119784 0.2 1023120
11 мая, вт
вт1100:00+1ююз119253 0.1 102356
03:00−1юз43855 0.1 102232
06:00+2ююз11825 0.0 102157
09:00+5в337732 0.0 1018707
12:00+8всв337561 0.0 1016752
15:00+7св328795 0.0 1017436
18:00+5ссв119385 0.0 1018260
21:00+4юз22890 0.0 101912
12 мая, ср
ср1200:00+4юз11820 0.0 101810
03:00+4юз11803 0.0 101810
06:00+7в01750 0.0 101747
09:00+11св31772 0.0 1016364
12:00+14св417342 0.0 1016515
15:00+13св317748 0.0 1016361
18:00+11всв118735 0.0 1017103
21:00+9юз22600 0.0 101713
13 мая, чт
чт1300:00+9юз33340 0.0 101717
03:00+9юз43300 0.0 101721
06:00+12юз22480 0.0 101721
09:00+17всв214759 0.0 1016452
12:00+19всв425799 0.0 1016730
15:00+18всв326711 0.5 1016548
18:00+15вюв118441 0.6 101777
21:00+13юз32694 0.6 101816